| time (UTC) | temp F | wind direction | speed MPH | gust MPH | rain 1hr in | rain 24hr in | rain mn in | humidity % | barometer mb |
| 20260504050336 | 56 | 65 | 6.0 | 9.0 | 0.00 | 0.00 | 0.00 | 79 | 1024.1 |
| 20260504045835 | 56 | 38 | 6.0 | 10.0 | 0.00 | 0.00 | 0.00 | 79 | 1024.2 |
| 20260504045334 | 56 | 41 | 4.0 | 10.0 | 0.00 | 0.00 | 0.00 | 79 | 1024.2 |
| 20260504044835 | 56 | 41 | 5.0 | 10.0 | 0.00 | 0.00 | 0.00 | 78 | 1024.2 |
| 20260504044335 | 57 | 51 | 5.0 | 10.0 | 0.00 | 0.00 | 0.00 | 78 | 1024.2 |
| 20260504043834 | 57 | 53 | 6.0 | 10.0 | 0.00 | 0.00 | 0.00 | 78 | 1024.2 |
| 20260504043334 | 57 | 46 | 5.0 | 10.0 | 0.00 | 0.00 | 0.00 | 77 | 1024.2 |
| 20260504043157 | 57 | 74 | 6.0 | 12.0 | 0.00 | 0.00 | 0.00 | 76 | 1024.2 |
| 20260504042329 | 57 | 93 | 8.0 | 12.0 | 0.00 | 0.00 | 0.00 | 76 | 1024.2 |
| 20260504041826 | 57 | 84 | 6.0 | 11.0 | 0.00 | 0.00 | 0.00 | 77 | 1024.2 |
| 20260504041644 | 56 | 84 | 8.0 | 11.0 | 0.00 | 0.00 | 0.00 | 78 | 1024.2 |
| 20260504040822 | 56 | 81 | 7.0 | 11.0 | 0.00 | 0.00 | 0.00 | 79 | 1024.3 |
| 20260504040319 | 56 | 74 | 7.0 | 12.0 | 0.00 | 0.00 | 0.00 | 79 | 1024.2 |
| 20260504035818 | 56 | 53 | 7.0 | 12.0 | 0.00 | 0.00 | 0.00 | 79 | 1024.2 |
| 20260504035315 | 56 | 30 | 9.0 | 12.0 | 0.00 | 0.00 | 0.00 | 79 | 1024.1 |
| 20260504034813 | 56 | 30 | 7.0 | 11.0 | 0.00 | 0.00 | 0.00 | 78 | 1024.1 |
| 20260504034312 | 56 | 31 | 6.0 | 10.0 | 0.00 | 0.00 | 0.00 | 78 | 1024.0 |
| 20260504033808 | 56 | 30 | 6.0 | 9.0 | 0.00 | 0.00 | 0.00 | 77 | 1024.0 |
| 20260504033308 | 57 | 30 | 4.0 | 9.0 | 0.00 | 0.00 | 0.00 | 76 | 1024.1 |
| 20260504032807 | 57 | 43 | 3.0 | 11.0 | 0.00 | 0.00 | 0.00 | 75 | 1024.1 |
| 20260504032647 | 57 | 77 | 4.0 | 11.0 | 0.00 | 0.00 | 0.00 | 75 | 1024.1 |
| 20260504031807 | 57 | 79 | 6.0 | 15.0 | 0.00 | 0.00 | 0.00 | 76 | 1024.2 |
| 20260504031308 | 57 | 92 | 9.0 | 16.0 | 0.00 | 0.00 | 0.00 | 76 | 1024.2 |
| 20260504031124 | 57 | 98 | 11.0 | 16.0 | 0.00 | 0.00 | 0.00 | 78 | 1024.1 |
| 20260504030307 | 57 | 69 | 10.0 | 17.0 | 0.00 | 0.00 | 0.00 | 78 | 1024.1 |
| 20260504025806 | 57 | 67 | 12.0 | 17.0 | 0.00 | 0.00 | 0.00 | 78 | 1024.0 |
| 20260504025307 | 57 | 44 | 12.0 | 16.0 | 0.00 | 0.00 | 0.00 | 78 | 1024.0 |
| 20260504025123 | 56 | 41 | 11.0 | 15.0 | 0.00 | 0.00 | 0.00 | 78 | 1024.0 |
| 20260504024305 | 56 | 44 | 9.0 | 12.0 | 0.00 | 0.00 | 0.00 | 78 | 1024.1 |
| 20260504023804 | 56 | 37 | 8.0 | 11.0 | 0.00 | 0.00 | 0.00 | 78 | 1024.0 |
| 20260504023304 | 57 | 30 | 5.0 | 9.0 | 0.00 | 0.00 | 0.00 | 78 | 1024.1 |
| 20260504023123 | 57 | 34 | 6.0 | 9.0 | 0.00 | 0.00 | 0.00 | 77 | 1024.1 |
| 20260504022305 | 57 | 65 | 4.0 | 11.0 | 0.00 | 0.00 | 0.00 | 77 | 1024.2 |
| 20260504021805 | 57 | 79 | 5.0 | 14.0 | 0.00 | 0.00 | 0.00 | 77 | 1024.2 |
| 20260504021303 | 57 | 92 | 8.0 | 14.0 | 0.00 | 0.00 | 0.00 | 77 | 1024.3 |
| 20260504020805 | 57 | 102 | 10.0 | 15.0 | 0.00 | 0.00 | 0.00 | 79 | 1024.3 |
| 20260504020307 | 57 | 88 | 10.0 | 18.0 | 0.00 | 0.00 | 0.00 | 80 | 1024.3 |
| 20260504015807 | 57 | 57 | 11.0 | 18.0 | 0.00 | 0.00 | 0.00 | 80 | 1024.3 |
| 20260504015306 | 57 | 61 | 9.0 | 13.0 | 0.00 | 0.00 | 0.00 | 80 | 1024.2 |
| 20260504014759 | 57 | 53 | 8.0 | 13.0 | 0.00 | 0.00 | 0.00 | 80 | 1024.1 |
| 20260504014255 | 57 | 55 | 6.0 | 11.0 | 0.00 | 0.00 | 0.00 | 80 | 1024.2 |
| 20260504013753 | 57 | 30 | 7.0 | 12.0 | 0.00 | 0.00 | 0.00 | 80 | 1024.1 |
| 20260504013251 | 57 | 30 | 9.0 | 12.0 | 0.00 | 0.00 | 0.00 | 80 | 1024.2 |
| 20260504012746 | 57 | 30 | 6.0 | 10.0 | 0.00 | 0.00 | 0.00 | 79 | 1024.3 |
| 20260504012245 | 58 | 30 | 5.0 | 10.0 | 0.00 | 0.00 | 0.00 | 79 | 1024.4 |
| 20260504011741 | 57 | 65 | 5.0 | 12.0 | 0.00 | 0.00 | 0.00 | 80 | 1024.5 |
| 20260504011237 | 57 | 68 | 7.0 | 12.0 | 0.00 | 0.00 | 0.00 | 80 | 1024.4 |
| 20260504010735 | 57 | 68 | 9.0 | 12.0 | 0.00 | 0.00 | 0.00 | 80 | 1024.5 |
| 20260504010558 | 57 | 69 | 9.0 | 13.0 | 0.00 | 0.00 | 0.00 | 80 | 1024.6 |
| 20260504005735 | 57 | 54 | 9.0 | 16.0 | 0.00 | 0.00 | 0.00 | 79 | 1024.4 |
| 20260504005608 | 58 | 77 | 11.0 | 18.0 | 0.00 | 0.00 | 0.00 | 79 | 1024.4 |
| 20260504004731 | 57 | 91 | 11.0 | 18.0 | 0.00 | 0.00 | 0.00 | 79 | 1024.2 |
| 20260504004227 | 57 | 75 | 11.0 | 19.0 | 0.00 | 0.00 | 0.00 | 79 | 1024.3 |
| 20260504004048 | 57 | 58 | 15.0 | 19.0 | 0.00 | 0.00 | 0.00 | 79 | 1024.1 |
| 20260504003226 | 57 | 50 | 11.0 | 18.0 | 0.00 | 0.00 | 0.00 | 78 | 1024.2 |
| 20260504002726 | 57 | 43 | 10.0 | 18.0 | 0.00 | 0.00 | 0.00 | 78 | 1024.2 |
| 20260504002222 | 57 | 33 | 6.0 | 10.0 | 0.00 | 0.00 | 0.00 | 78 | 1024.3 |
| 20260504001720 | 57 | 36 | 5.0 | 10.0 | 0.00 | 0.00 | 0.00 | 78 | 1024.3 |
| 20260504001218 | 57 | 72 | 6.0 | 11.0 | 0.00 | 0.00 | 0.00 | 77 | 1024.3 |
| 20260504000836 | 58 | 62 | 7.0 | 11.0 | 0.00 | 0.00 | 0.00 | 77 | 1024.3 |
| 20260503235715 | 58 | 81 | 7.0 | 16.0 | 0.00 | 0.00 | 0.00 | 75 | 1024.3 |
| 20260503235211 | 58 | 93 | 11.0 | 17.0 | 0.00 | 0.00 | 0.00 | 75 | 1024.3 |
| 20260503234709 | 58 | 98 | 12.0 | 18.0 | 0.00 | 0.00 | 0.00 | 76 | 1024.2 |
| 20260503234208 | 58 | 91 | 14.0 | 21.0 | 0.00 | 0.00 | 0.00 | 77 | 1024.2 |
| 20260503233707 | 58 | 81 | 12.0 | 21.0 | 0.00 | 0.00 | 0.00 | 77 | 1024.1 |
| 20260503233205 | 58 | 67 | 16.0 | 22.0 | 0.00 | 0.00 | 0.00 | 79 | 1024.1 |
| 20260503233017 | 58 | 30 | 16.0 | 22.0 | 0.00 | 0.00 | 0.00 | 79 | 1024.0 |
| 20260503232207 | 58 | 60 | 14.0 | 20.0 | 0.00 | 0.00 | 0.00 | 79 | 1024.0 |
| 20260503231705 | 58 | 48 | 9.0 | 15.0 | 0.00 | 0.00 | 0.00 | 80 | 1024.1 |
| 20260503231309 | 58 | 68 | 8.0 | 15.0 | 0.00 | 0.00 | 0.00 | 79 | 1024.0 |
| 20260503230208 | 58 | 51 | 5.0 | 10.0 | 0.00 | 0.00 | 0.00 | 79 | 1024.1 |
| 20260503225708 | 58 | 64 | 5.0 | 12.0 | 0.00 | 0.00 | 0.00 | 79 | 1024.1 |
| 20260503225207 | 58 | 61 | 8.0 | 13.0 | 0.00 | 0.00 | 0.00 | 79 | 1024.1 |
| 20260503224704 | 58 | 93 | 8.0 | 17.0 | 0.00 | 0.00 | 0.00 | 79 | 1024.0 |
| 20260503224520 | 58 | 85 | 12.0 | 20.0 | 0.00 | 0.00 | 0.00 | 79 | 1024.1 |
| 20260503223658 | 58 | 51 | 13.0 | 20.0 | 0.00 | 0.00 | 0.00 | 79 | 1023.9 |
| 20260503223158 | 58 | 86 | 14.0 | 22.0 | 0.00 | 0.00 | 0.00 | 78 | 1023.8 |
| 20260503222700 | 59 | 79 | 15.0 | 22.0 | 0.00 | 0.00 | 0.00 | 78 | 1023.8 |
| 20260503222200 | 59 | 79 | 16.0 | 23.0 | 0.00 | 0.00 | 0.00 | 79 | 1023.7 |
| 20260503221659 | 59 | 65 | 13.0 | 23.0 | 0.00 | 0.00 | 0.00 | 79 | 1023.6 |
| 20260503221155 | 59 | 71 | 15.0 | 21.0 | 0.00 | 0.00 | 0.00 | 78 | 1023.6 |
| 20260503220658 | 59 | 69 | 15.0 | 21.0 | 0.00 | 0.00 | 0.00 | 78 | 1023.5 |
| 20260503220154 | 59 | 67 | 13.0 | 21.0 | 0.00 | 0.00 | 0.00 | 78 | 1023.5 |
| 20260503215656 | 59 | 50 | 14.0 | 20.0 | 0.00 | 0.00 | 0.00 | 78 | 1023.4 |
| 20260503215155 | 59 | 30 | 15.0 | 20.0 | 0.00 | 0.00 | 0.00 | 78 | 1023.4 |
| 20260503214654 | 59 | 81 | 11.0 | 18.0 | 0.00 | 0.00 | 0.00 | 78 | 1023.4 |
| 20260503214250 | 59 | 68 | 11.0 | 18.0 | 0.00 | 0.00 | 0.00 | 78 | 1023.3 |
| 20260503213143 | 59 | 78 | 12.0 | 19.0 | 0.00 | 0.00 | 0.00 | 77 | 1023.3 |
| 20260503212957 | 59 | 75 | 12.0 | 16.0 | 0.00 | 0.00 | 0.00 | 77 | 1023.2 |
| 20260503212135 | 59 | 46 | 13.0 | 18.0 | 0.00 | 0.00 | 0.00 | 77 | 1023.2 |
| 20260503211637 | 59 | 37 | 13.0 | 18.0 | 0.00 | 0.00 | 0.00 | 78 | 1023.1 |
| 20260503211135 | 59 | 50 | 13.0 | 18.0 | 0.00 | 0.00 | 0.00 | 78 | 1023.2 |
| 20260503210636 | 59 | 48 | 15.0 | 19.0 | 0.00 | 0.00 | 0.00 | 78 | 1023.1 |
| 20260503210134 | 59 | 47 | 13.0 | 20.0 | 0.00 | 0.00 | 0.00 | 79 | 1023.0 |
| 20260503205635 | 59 | 62 | 14.0 | 21.0 | 0.00 | 0.00 | 0.00 | 79 | 1022.9 |
| 20260503205136 | 59 | 55 | 16.0 | 22.0 | 0.00 | 0.00 | 0.00 | 79 | 1022.9 |
| 20260503204635 | 59 | 51 | 17.0 | 22.0 | 0.00 | 0.00 | 0.00 | 79 | 1022.7 |
| 20260503204134 | 59 | 48 | 17.0 | 20.0 | 0.00 | 0.00 | 0.00 | 78 | 1022.6 |
| 20260503203958 | 59 | 41 | 14.0 | 19.0 | 0.00 | 0.00 | 0.00 | 77 | 1022.6 |
| 20260503203135 | 59 | 51 | 15.0 | 19.0 | 0.00 | 0.00 | 0.00 | 76 | 1022.5 |
| 20260503202634 | 59 | 65 | 12.0 | 21.0 | 0.00 | 0.00 | 0.00 | 76 | 1022.6 |
| 20260503202133 | 59 | 53 | 14.0 | 21.0 | 0.00 | 0.00 | 0.00 | 76 | 1022.6 |
| 20260503201949 | 60 | 62 | 12.0 | 20.0 | 0.00 | 0.00 | 0.00 | 75 | 1022.6 |
| 20260503201132 | 60 | 58 | 12.0 | 18.0 | 0.00 | 0.00 | 0.00 | 76 | 1022.5 |
| 20260503200632 | 60 | 54 | 9.0 | 18.0 | 0.00 | 0.00 | 0.00 | 77 | 1022.5 |
| 20260503200134 | 60 | 68 | 11.0 | 19.0 | 0.00 | 0.00 | 0.00 | 76 | 1022.5 |
| 20260503195634 | 60 | 72 | 11.0 | 20.0 | 0.00 | 0.00 | 0.00 | 76 | 1022.6 |
| 20260503195134 | 60 | 71 | 12.0 | 21.0 | 0.00 | 0.00 | 0.00 | 77 | 1022.6 |
| 20260503194634 | 60 | 77 | 16.0 | 21.0 | 0.00 | 0.00 | 0.00 | 76 | 1022.5 |
| 20260503194128 | 60 | 47 | 13.0 | 24.0 | 0.00 | 0.00 | 0.00 | 77 | 1022.5 |
| 20260503193627 | 60 | 62 | 15.0 | 27.0 | 0.00 | 0.00 | 0.00 | 77 | 1022.5 |
| 20260503193123 | 60 | 77 | 17.0 | 27.0 | 0.00 | 0.00 | 0.00 | 77 | 1022.4 |
| 20260503192621 | 60 | 54 | 18.0 | 23.0 | 0.00 | 0.00 | 0.00 | 77 | 1022.4 |
| 20260503192120 | 60 | 61 | 15.0 | 26.0 | 0.00 | 0.00 | 0.00 | 78 | 1022.3 |
| 20260503191620 | 60 | 82 | 17.0 | 26.0 | 0.00 | 0.00 | 0.00 | 77 | 1022.4 |
| 20260503191116 | 60 | 37 | 18.0 | 26.0 | 0.00 | 0.00 | 0.00 | 77 | 1022.4 |
| 20260503190617 | 60 | 62 | 19.0 | 26.0 | 0.00 | 0.00 | 0.00 | 77 | 1022.4 |
| 20260503190117 | 60 | 55 | 19.0 | 24.0 | 0.00 | 0.00 | 0.00 | 78 | 1022.4 |
| 20260503185617 | 60 | 64 | 12.0 | 22.0 | 0.00 | 0.00 | 0.00 | 77 | 1022.4 |
| 20260503185121 | 60 | 36 | 12.0 | 22.0 | 0.00 | 0.00 | 0.00 | 77 | 1022.5 |
| 20260503184614 | 60 | 46 | 15.0 | 24.0 | 0.00 | 0.00 | 0.00 | 77 | 1022.6 |
| 20260503184111 | 60 | 34 | 17.0 | 24.0 | 0.00 | 0.00 | 0.00 | 77 | 1022.5 |
| 20260503183612 | 61 | 67 | 14.0 | 24.0 | 0.00 | 0.00 | 0.00 | 78 | 1022.3 |
| 20260503183108 | 61 | 64 | 17.0 | 26.0 | 0.00 | 0.00 | 0.00 | 77 | 1022.3 |
| 20260503182607 | 62 | 44 | 20.0 | 26.0 | 0.00 | 0.00 | 0.00 | 76 | 1022.2 |
| 20260503182104 | 62 | 79 | 16.0 | 23.0 | 0.00 | 0.00 | 0.00 | 76 | 1022.2 |
| 20260503181601 | 62 | 30 | 19.0 | 26.0 | 0.00 | 0.00 | 0.00 | 76 | 1022.0 |
| 20260503181059 | 62 | 48 | 18.0 | 26.0 | 0.00 | 0.00 | 0.00 | 76 | 1022.0 |
| 20260503180558 | 62 | 38 | 16.0 | 24.0 | 0.00 | 0.00 | 0.00 | 77 | 1022.0 |
| 20260503180057 | 62 | 44 | 14.0 | 22.0 | 0.00 | 0.00 | 0.00 | 78 | 1022.1 |
| 20260503175553 | 62 | 86 | 16.0 | 22.0 | 0.00 | 0.00 | 0.00 | 77 | 1022.1 |
| 20260503175053 | 62 | 43 | 17.0 | 24.0 | 0.00 | 0.00 | 0.00 | 77 | 1022.1 |
| 20260503174917 | 62 | 43 | 18.0 | 24.0 | 0.00 | 0.00 | 0.00 | 76 | 1022.1 |
| 20260503174052 | 62 | 51 | 13.0 | 20.0 | 0.00 | 0.00 | 0.00 | 76 | 1022.2 |
| 20260503173553 | 62 | 57 | 14.0 | 20.0 | 0.00 | 0.00 | 0.00 | 75 | 1022.2 |
| 20260503173051 | 62 | 67 | 13.0 | 18.0 | 0.00 | 0.00 | 0.00 | 74 | 1022.3 |
| 20260503172544 | 62 | 102 | 12.0 | 22.0 | 0.00 | 0.00 | 0.00 | 74 | 1022.2 |
| 20260503172408 | 62 | 77 | 14.0 | 26.0 | 0.00 | 0.00 | 0.00 | 73 | 1022.2 |
| 20260503171538 | 62 | 67 | 20.0 | 27.0 | 0.00 | 0.00 | 0.00 | 72 | 1022.0 |
| 20260503171035 | 63 | 74 | 21.0 | 28.0 | 0.00 | 0.00 | 0.00 | 71 | 1021.9 |
| 20260503170535 | 63 | 58 | 18.0 | 28.0 | 0.00 | 0.00 | 0.00 | 73 | 1021.8 |
| 20260503151000 | 62 | 62 | 19.0 | 23.0 | 0.00 | 0.00 | 0.00 | 78 | 1022.6 |
| 20260503150455 | 62 | 88 | 17.0 | 27.0 | 0.00 | 0.00 | 0.00 | 76 | 1022.6 |
| 20260503130932 | 62 | 69 | 14.0 | 22.0 | 0.00 | 0.00 | 0.00 | 75 | 1022.8 |
| 20260503130434 | 63 | 64 | 17.0 | 26.0 | 0.00 | 0.00 | 0.00 | 75 | 1022.7 |
| 20260503090343 | 61 | 68 | 11.0 | 17.0 | 0.00 | 0.00 | 0.00 | 75 | 1021.9 |
| 20260503081440 | 60 | 69 | 12.0 | 21.0 | 0.00 | 0.00 | 0.00 | 77 | 1021.7 |
| 20260503080329 | 59 | 60 | 13.0 | 19.0 | 0.00 | 0.00 | 0.00 | 77 | 1021.6 |
| 20260503072813 | 58 | 60 | 13.0 | 19.0 | 0.00 | 0.00 | 0.00 | 78 | 1021.2 |
| 20260503072311 | 58 | 60 | 15.0 | 20.0 | 0.00 | 0.00 | 0.00 | 78 | 1021.2 |